Preview of NWS' New Version of Forecast
This preview is not operational and should not be used for support decisions.

Regional Weather Roundup (RWR)

Issued by National Weather Service (NWS)

                            
000
ASUS46 KSEW 181510
RWRWA 

WASHINGTON REGIONAL WEATHER ROUNDUP
NATIONAL WEATHER SERVICE SEATTLE WA
800 AM PDT TUE JUN 18 2019

NOTE:"FAIR" INDICATES FEW OR NO CLOUDS BELOW 12,000 FEET WITH NO 
SIGNIFICANT WEATHER AND/OR OBSTRUCTIONS TO VISIBILITY.

WAZ507-509-555>559-181600-
SEATTLE, TACOMA, EVERETT, AND VICINITY
  
CITY           SKY/WX    TMP DP  RH WIND       PRES   REMARKS
EVERETT        LGT RAIN  54  52  93 N6        30.23R FOG              
BOEING FIELD   CLOUDY    59  54  83 NE5       30.22R FOG              
RENTON         CLOUDY    59  55  87 N3        30.22R FOG              
SEATAC AIRPORT DRZL/FOG  57  54  89 CALM      30.22R VSB 1            
JBLM-MCCHORD   CLOUDY    57  57 100 S6        30.23R                  
PUYALLUP       CLOUDY    57  57 100 CALM      30.22S FOG              
BREMERTON      CLOUDY    56  54  93 E3        30.22R                  
JBLM-FT LEWIS  CLOUDY    57  57  99 S5        30.21R                  
TACOMA NARROWS LGT RAIN  54  54 100 SW6       30.22R VSB 3/4          
$$
 
WAZ001-503-506-510-514-515-181600-
NORTH INTERIOR
  
CITY           SKY/WX    TMP DP  RH WIND       PRES   REMARKS
BELLINGHAM     CLOUDY    59  51  75 S7        30.17S                  
FRIDAY HARBOR  SUNNY     61  50  67 SW8       30.19S                  
EASTSOUND      PTSUNNY   59  54  82 S7        30.17S                  
PORT ANGELES   SUNNY     56  51  84 NW9       30.23R                  
EDIZ HOOK      FAIR      54  51  88 W12       30.22S                  
PORT TOWNSEND  PTSUNNY   61  50  67 W14       30.21R                  
NAS WHIDBEY    CLOUDY    58  51  78 W15G24    30.24R                  
ARLINGTON      PTSUNNY   58  51  78 NW9       30.24R                  
BURLINGTON     CLOUDY    57  52  82 S3        30.21S FOG              
$$
 
WAZ020-022-039-040-504-511-512-181600-
SOUTHWEST INTERIOR
  
CITY           SKY/WX    TMP DP  RH WIND       PRES   REMARKS
SHELTON        CLOUDY    57  52  83 SW9       30.19R                  
OLYMPIA        CLOUDY    57  51  80 S10       30.22R                  
CHEHALIS       CLOUDY    57  52  82 W7        30.25R                  
KELSO          CLOUDY    59  52  77 VRB7      30.26R                  
VANCOUVER      CLOUDY    61  51  70 N3        30.24R                  
SCAPPOOSE, OR  CLOUDY    62  53  72 CALM      30.23R                  
PORTLAND, OR   PTSUNNY   62  51  67 NW5       30.24R                  
$$
 
WAZ021-516-517-181600-
WASHINGTON COAST
  
CITY           SKY/WX    TMP DP  RH WIND       PRES   REMARKS
FORKS          CLOUDY    54  51  90 CALM      30.25S                  
HOQUIAM        MOSUNNY   58  50  75 NW13G21   30.25R                  
ASTORIA, OR    CLOUDY    56  50  80 N10       30.28R                  
$$
 
WAZ019-023-024-040-567>569-181600-
CASCADE MOUNTAINS AND COLUMBIA GORGE
  
CITY           SKY/WX    TMP DP  RH WIND       PRES   REMARKS
STAMPEDE PASS  FOG       50  48  93 W9        30.18F VSB 1/2          
TROUTDALE, OR  CLOUDY    62  52  69 NW5       30.24R                  
HOOD RIVER, OR MOSUNNY   64  52  63 W14G24    30.13F                  
THE DALLES, OR SUNNY     68  53  58 NW18G24   30.08F                  
$$

WAZ026-027-041>044-520-521-181600-
EAST SLOPES
  
CITY           SKY/WX    TMP DP  RH WIND       PRES   REMARKS
OMAK           SUNNY     75  45  34 N8        29.97S                  
WENATCHEE      MOSUNNY   73  43  33 W10G22    30.00S                  
ELLENSBURG     SUNNY     68  49  50 NW25G35   30.05R                  
YAKIMA         SUNNY     74  48  39 N6        30.03R                  
SUNNYSIDE ARPT SUNNY     70  55  59 S5        30.03S                  
YAKIMA TC      FAIR      72  47  41 W10       30.03R                  
$$

WAZ028-034-035-181600-
COLUMBIA BASIN
  
CITY           SKY/WX    TMP DP  RH WIND       PRES   REMARKS
EPHRATA        SUNNY     75  45  34 NW12      29.98S                  
MOSES LAKE     SUNNY     76  48  37 W7        29.99S                  
PASCO          SUNNY     75  53  46 S9        30.01S                  
RICHLAND ARPT  SUNNY     76  53  43 S7        30.01S                  
HERMISTON, OR  SUNNY     71  52  50 W14G22    30.04R                  
$$

WAZ036>038-181600-
NORTHEAST WASHINGTON
  
CITY           SKY/WX    TMP DP  RH WIND       PRES   REMARKS
SPOKANE GEIGER MOSUNNY   64  47  53 SW15      29.98S                  
SPOKANE FELTS  SUNNY     66  48  52 SW10      29.99R                  
FAIRCHILD AFB  SUNNY     64  48  57 SW12      29.99R                  
COEURDALENE,ID SUNNY     64  50  60 S8        30.00R                  
DEER PARK      SUNNY     63  48  58 S10       29.99R                  
$$

WAZ029>033-181600-
SOUTHEAST WASHINGTON
  
CITY           SKY/WX    TMP DP  RH WIND       PRES   REMARKS
PULLMAN        SUNNY     65  50  58 W17G25    30.07R                  
LEWISTON, ID   MOSUNNY   71  50  47 W5        30.03R                  
WALLA WALLA    SUNNY     70  50  49 S16       30.05F                  
PENDLETON, OR  SUNNY     69  49  48 W12       30.07S                  
$$